Charlevoix, MI

1:23 PM EST on December 12, 2017 (GMT -0500)
Charlevoix Municipal

Weather History for KCVX - May, 2014

Change the Weather History Date:

Friday, May 2, 2014

  Actual Average Record
Temperature  
Mean Temperature 42 °F -  
Max Temperature 46 °F 63 °F 75 °F (2001)
Min Temperature 37 °F 46 °F 32 °F (2002)
Degree Days  
Heating Degree Days 24    
Moisture  
Dew Point 41 °F    
Average Humidity 95    
Maximum Humidity 99    
Minimum Humidity 85    
Precipitation  
Precipitation 0.00 in - - ()
Sea Level Pressure  
Sea Level Pressure 29.70 in    
Wind  
Wind Speed 9 mph (WSW)    
Max Wind Speed 14 mph    
Max Gust Speed 18 mph    
Visibility 6 miles    
Events Fog , Rain    
Averages and records for this station are not official NWS values.
T = Trace of Precipitation, MM = Missing Value Source: NWS Daily Summary

Daily Weather History Graph

Daily Weather History Graph

Search for Another Location

Airport or City:

Trip Planner

Search our weather history database for the weather conditions in past years. The results will help you decide how hot, cold, wet, or windy it might be!

Date:

Astronomy

May. 02, 2014 Rise Set
Actual Time 6:28 AM EDT 8:48 PM EDT
Civil Twilight 5:55 AM EDT 9:21 PM EDT
Nautical Twilight 5:14 AM EDT 10:02 PM EDT
Astronomical Twilight 4:29 AM EDT 10:48 PM EDT
Moon 9:01 AM EDT (5/2) No Moon Set
Length of Visible Light 15h 26m
Length of Day
14h 20m
Waxing Crescent, 12% of the Moon is Illuminated
May 2
Waxing Crescent
May 6
First Quarter
May 14
Full
May 21
Last Quarter
May 28
New

Hourly Weather History & Observations

Time (EDT) Temp. Windchill Dew Point Humidity Pressure Visibility Wind Dir Wind Speed Gust Speed Precip Events Conditions
12:14 AM 40.3 °F 36.3 °F 38.5 °F 93% 29.69 in 7.0 mi SW 5.8 mph - N/A   Light Drizzle
12:35 AM 40.3 °F 34.4 °F 38.8 °F 95% 29.69 in 7.0 mi SW 9.2 mph - N/A   Drizzle
12:55 AM 40.3 °F 34.9 °F 39.0 °F 95% 29.69 in 5.0 mi SW 8.1 mph - N/A   Light Drizzle
1:14 AM 40.3 °F 35.5 °F 39.2 °F 96% 29.68 in 3.0 mi SW 6.9 mph - N/A   Light Drizzle
1:35 AM 40.3 °F 34.9 °F 39.4 °F 97% 29.68 in 4.0 mi SW 8.1 mph - N/A   Light Drizzle
1:55 AM 40.1 °F 33.2 °F 39.4 °F 97% 29.68 in 4.0 mi WSW 11.5 mph - N/A   Overcast
2:14 AM 39.6 °F 31.7 °F 38.8 °F 97% 29.68 in 2.0 mi WSW 13.8 mph 18.4 mph N/A   Overcast
2:35 AM 38.3 °F 30.5 °F 37.8 °F 98% 29.68 in 2.0 mi West 12.7 mph 17.3 mph N/A   Overcast
2:54 AM 37.9 °F 30.5 °F 37.4 °F 98% 29.67 in 1.8 mi West 11.5 mph - N/A   Overcast
3:15 AM 38.3 °F 31.4 °F 37.8 °F 98% 29.67 in 1.2 mi West 10.4 mph - N/A   Overcast
3:35 AM 38.8 °F 31.6 °F 38.5 °F 99% 29.67 in 1.2 mi West 11.5 mph - N/A   Overcast
3:55 AM 38.8 °F 31.6 °F 38.5 °F 99% 29.67 in 1.0 mi West 11.5 mph 17.3 mph N/A   Overcast
4:15 AM 38.8 °F 31.6 °F 38.5 °F 99% 29.67 in 0.5 mi West 11.5 mph - N/A Fog Fog
4:34 AM 38.7 °F 31.4 °F 38.3 °F 99% 29.67 in 0.5 mi West 11.5 mph - N/A Fog Fog
4:55 AM 38.8 °F 31.2 °F 38.5 °F 99% 29.68 in 0.8 mi West 12.7 mph - N/A   Overcast
5:15 AM 38.7 °F 30.9 °F 38.5 °F 99% 29.68 in 1.2 mi West 12.7 mph - N/A   Overcast
5:34 AM 39.0 °F 31.4 °F 38.7 °F 99% 29.68 in 0.8 mi West 12.7 mph - N/A   Overcast
5:55 AM 38.8 °F 31.6 °F 38.7 °F 99% 29.68 in 2.5 mi West 11.5 mph - N/A   Overcast
6:15 AM 38.8 °F 33.2 °F 38.7 °F 99% 29.68 in 2.5 mi West 8.1 mph - N/A   Overcast
6:34 AM 38.5 °F 31.1 °F 38.3 °F 99% 29.68 in 2.0 mi West 11.5 mph - N/A   Overcast
6:55 AM 38.7 °F 31.4 °F 38.5 °F 99% 29.69 in 0.5 mi West 11.5 mph - N/A Fog Fog
7:15 AM 38.5 °F 32.1 °F 38.3 °F 99% 29.69 in 0.5 mi WSW 9.2 mph - N/A Fog Fog
7:35 AM 38.5 °F 33.4 °F 38.3 °F 99% 29.71 in 0.8 mi West 6.9 mph - N/A   Overcast
7:55 AM 38.5 °F 32.7 °F 38.3 °F 99% 29.71 in 2.0 mi West 8.1 mph - N/A   Overcast
8:14 AM 39.6 °F 33.5 °F 39.4 °F 99% 29.71 in 10.0 mi West 9.2 mph - N/A   Overcast
8:35 AM 40.5 °F 34.1 °F 40.1 °F 99% 29.71 in 7.0 mi West 10.4 mph - N/A Rain Light Rain
8:55 AM 41.0 °F 36.4 °F 40.5 °F 98% 29.71 in 10.0 mi West 6.9 mph - N/A   Light Drizzle
9:14 AM 40.8 °F 35.0 °F 40.3 °F 98% 29.71 in 10.0 mi West 9.2 mph - N/A Rain Light Rain
9:35 AM 40.6 °F 36.0 °F 40.1 °F 98% 29.72 in 1.0 mi WSW 6.9 mph - N/A Rain Light Rain
9:55 AM 40.3 °F 36.3 °F 40.1 °F 99% 29.72 in 1.2 mi SW 5.8 mph - N/A   Light Drizzle
10:14 AM 40.6 °F 35.4 °F 40.3 °F 99% 29.71 in 4.0 mi SW 8.1 mph - N/A Rain Light Rain
10:35 AM 41.9 °F 36.9 °F 41.4 °F 98% 29.71 in 7.0 mi SW 8.1 mph - N/A Rain Light Rain
10:55 AM 42.8 °F 38.0 °F 42.1 °F 97% 29.71 in 10.0 mi WSW 8.1 mph - N/A   Light Drizzle
11:15 AM 43.3 °F 38.6 °F 42.8 °F 98% 29.72 in 2.0 mi WSW 8.1 mph - N/A Rain Light Rain
11:35 AM 43.2 °F 37.9 °F 42.6 °F 98% 29.72 in 7.0 mi WSW 9.2 mph - N/A Rain Light Rain
11:54 AM 43.3 °F 38.6 °F 42.6 °F 97% 29.72 in 10.0 mi WSW 8.1 mph - N/A   Overcast
12:15 PM 43.2 °F 37.9 °F 42.4 °F 97% 29.72 in 1.5 mi WSW 9.2 mph - N/A   Overcast
12:34 PM 42.8 °F 36.6 °F 41.9 °F 97% 29.72 in 1.8 mi WSW 11.5 mph - N/A   Overcast
12:55 PM 43.0 °F 37.2 °F 42.3 °F 97% 29.72 in 1.2 mi WSW 10.4 mph - N/A   Overcast
1:15 PM 42.8 °F 36.6 °F 42.1 °F 97% 29.72 in 1.2 mi WSW 11.5 mph - N/A   Overcast
1:34 PM 42.8 °F 37.0 °F 42.1 °F 97% 29.72 in 5.0 mi WSW 10.4 mph - N/A   Overcast
1:55 PM 43.5 °F 37.9 °F 42.4 °F 96% 29.72 in 10.0 mi WSW 10.4 mph - N/A   Overcast
2:14 PM 43.9 °F 39.3 °F 42.4 °F 95% 29.72 in 10.0 mi WSW 8.1 mph - N/A   Overcast
2:35 PM 44.2 °F 38.4 °F 41.9 °F 91% 29.72 in 10.0 mi WSW 11.5 mph - N/A   Overcast
2:55 PM 45.5 °F 41.3 °F 42.3 °F 88% 29.71 in 10.0 mi SW 8.1 mph - N/A   Overcast
3:14 PM 45.7 °F 40.2 °F 41.9 °F 87% 29.71 in 10.0 mi WSW 11.5 mph 16.1 mph N/A   Overcast
3:35 PM 46.2 °F 41.2 °F 42.1 °F 85% 29.71 in 10.0 mi West 10.4 mph - N/A   Overcast
3:55 PM 45.5 °F 40.3 °F 41.2 °F 85% 29.71 in 10.0 mi WSW 10.4 mph - N/A Rain Light Rain
4:14 PM 45.5 °F 40.3 °F 41.5 °F 86% 29.71 in 10.0 mi WSW 10.4 mph - N/A   Overcast
4:35 PM 45.0 °F 39.7 °F 41.9 °F 89% 29.71 in 10.0 mi WSW 10.4 mph - N/A Rain Light Rain
4:55 PM 45.5 °F 40.3 °F 41.9 °F 87% 29.71 in 10.0 mi SW 10.4 mph - N/A   Overcast
5:15 PM 45.5 °F 41.3 °F 42.4 °F 89% 29.71 in 5.0 mi SW 8.1 mph - N/A   Overcast
5:35 PM 45.5 °F 40.8 °F 42.4 °F 89% 29.70 in 10.0 mi SW 9.2 mph - N/A   Overcast
5:54 PM 45.9 °F 41.7 °F 42.3 °F 87% 29.70 in 10.0 mi SW 8.1 mph - N/A   Overcast
6:15 PM 45.9 °F 41.2 °F 42.1 °F 87% 29.70 in 7.0 mi SW 9.2 mph - N/A   Light Drizzle
6:35 PM 45.7 °F 43.4 °F 42.8 °F 90% 29.71 in 10.0 mi SW 4.6 mph - N/A   Light Drizzle
6:54 PM 45.5 °F 41.8 °F 42.6 °F 90% 29.71 in 7.0 mi WSW 6.9 mph - N/A   Drizzle
7:15 PM 44.4 °F 40.0 °F 42.1 °F 91% 29.71 in 7.0 mi WSW 8.1 mph - N/A Rain Rain
7:35 PM 43.3 °F 38.1 °F 41.5 °F 93% 29.71 in 7.0 mi WSW 9.2 mph - N/A   Drizzle
7:54 PM 43.0 °F 38.2 °F 41.5 °F 95% 29.71 in 7.0 mi WSW 8.1 mph - N/A Rain Rain
8:15 PM 43.0 °F 39.5 °F 41.9 °F 96% 29.71 in 10.0 mi SW 5.8 mph - N/A Rain Light Rain
8:34 PM 43.2 °F 39.0 °F 41.9 °F 95% 29.71 in 10.0 mi SW 6.9 mph - N/A   Light Drizzle
8:55 PM 43.0 °F 40.3 °F 41.9 °F 96% 29.71 in 10.0 mi SW 4.6 mph - N/A Rain Light Rain
9:15 PM 43.2 °F 39.7 °F 41.9 °F 95% 29.71 in 10.0 mi SW 5.8 mph - N/A Rain Light Rain
9:34 PM 43.5 °F 40.1 °F 42.3 °F 95% 29.72 in 10.0 mi SW 5.8 mph - N/A   Light Drizzle
9:55 PM 43.3 °F 40.7 °F 42.1 °F 95% 29.72 in 10.0 mi SSW 4.6 mph - N/A   Overcast
10:14 PM 43.5 °F 41.9 °F 42.4 °F 96% 29.72 in 10.0 mi SSW 3.5 mph - N/A   Overcast
10:35 PM 43.7 °F 41.1 °F 42.8 °F 97% 29.72 in 10.0 mi SSW 4.6 mph - N/A   Overcast
10:55 PM 44.1 °F 41.5 °F 42.8 °F 95% 29.72 in 10.0 mi SSW 4.6 mph - N/A   Overcast
11:14 PM 44.1 °F 42.5 °F 42.8 °F 95% 29.72 in 10.0 mi SW 3.5 mph - N/A   Overcast
11:35 PM 43.9 °F 41.3 °F 42.8 °F 96% 29.71 in 10.0 mi SW 4.6 mph - N/A   Overcast
11:54 PM 43.9 °F - 42.8 °F 96% 29.71 in 10.0 mi Calm Calm - N/A   Overcast